Louisville, KY

1:09 PM EDT on July 28, 2017 (GMT -0400)
Louisville International-Standiford

Weather History for KSDF - November, 2011

Change the Weather History Date:

Monday, November 21, 2011

  Actual Average Record
Temperature  
Mean Temperature 57 °F 46 °F  
Max Temperature 61 °F 55 °F 77 °F (1934)
Min Temperature 52 °F 38 °F 13 °F (1880)
Degree Days  
Heating Degree Days 8 19  
Month to date heating degree days 243 306  
Since 1 July heating degree days 514 548  
Cooling Degree Days 0 0  
Month to date cooling degree days 3 0  
Year to date cooling degree days 1852 1609  
Growing Degree Days 6 (Base 50)    
Moisture  
Dew Point 53 °F    
Average Humidity 92    
Maximum Humidity 100    
Minimum Humidity 84    
Precipitation  
Precipitation 0.23 in 0.13 in 2.65 in (1883)
Month to date precipitation 3.56 2.43  
Year to date precipitation 58.75 39.92  
Snow  
Snow 0.00 in 0.00 in 1.20 in (1926)
Month to date snowfall 0.0 0.0  
Since 1 July snowfall 0.0 0.1  
Since 1 September snowfall 0.0 0.1  
Snow Depth 0.00 in    
Sea Level Pressure  
Sea Level Pressure 30.14 in    
Wind  
Wind Speed 2 mph (North)    
Max Wind Speed 10 mph    
Max Gust Speed 17 mph    
Visibility 3 miles    
Events Fog , Rain , Thunderstorm    
T = Trace of Precipitation, MM = Missing Value Source: NWS Daily Summary

Daily Weather History Graph

Daily Weather History Graph

Search for Another Location

Airport or City:

Trip Planner

Search our weather history database for the weather conditions in past years. The results will help you decide how hot, cold, wet, or windy it might be!

Date:

Astronomy

Nov. 21, 2011 Rise Set
Actual Time 7:30 AM EST 5:27 PM EST
Civil Twilight 7:01 AM EST 5:55 PM EST
Nautical Twilight 6:29 AM EST 6:27 PM EST
Astronomical Twilight 5:57 AM EST 6:59 PM EST
Moon 3:10 AM EST (11/21) 2:46 PM EST (11/21)
Length of Visible Light 10h 53m
Length of Day
9h 56m
Waning Crescent, 18% of the Moon is Illuminated
Nov 21
Waning Crescent
Nov 25
New
Dec 2
First Quarter
Dec 10
Full
Dec 17
Last Quarter

Hourly Weather History & Observations

Time (EST) Temp. Dew Point Humidity Pressure Visibility Wind Dir Wind Speed Gust Speed Precip Events Conditions
12:18 AM 51.8 °F 51.8 °F 100% 30.17 in 2.5 mi North 8.1 mph - N/A   Overcast
12:56 AM 52.0 °F 51.1 °F 97% 30.17 in 2.0 mi Calm Calm - N/A   Overcast
1:56 AM 52.0 °F 51.1 °F 97% 30.18 in 2.0 mi NNW 3.5 mph - N/A   Overcast
2:14 AM 51.8 °F 51.8 °F 100% 30.17 in 1.8 mi North 4.6 mph - N/A   Overcast
2:51 AM 51.8 °F 51.8 °F 100% 30.17 in 0.8 mi Calm Calm - N/A   Overcast
2:56 AM 52.0 °F 51.1 °F 97% 30.17 in 0.5 mi Calm Calm - N/A Fog Fog
3:56 AM 52.0 °F 51.1 °F 97% 30.19 in 0.8 mi NW 4.6 mph - 0.05 in Rain Light Rain
4:03 AM 51.8 °F 51.8 °F 100% 30.17 in 1.2 mi Calm Calm - 0.00 in Rain , Thunderstorm Light Thunderstorms and Rain
4:24 AM 51.8 °F 51.8 °F 100% 30.15 in 2.0 mi Calm Calm - 0.01 in Rain Light Rain
4:35 AM 53.6 °F 51.8 °F 94% 30.14 in 3.0 mi Calm Calm - 0.01 in   Overcast
4:48 AM 53.6 °F 51.8 °F 94% 30.15 in 2.5 mi Calm Calm - 0.01 in   Overcast
4:54 AM 53.6 °F 51.8 °F 94% 30.16 in 3.0 mi Calm Calm - 0.01 in   Overcast
4:56 AM 53.1 °F 52.0 °F 96% 30.16 in 3.0 mi West 3.5 mph - 0.01 in   Overcast
5:56 AM 53.1 °F 52.0 °F 96% 30.16 in 2.5 mi North 3.5 mph - N/A   Overcast
6:03 AM 53.6 °F 51.8 °F 94% 30.17 in 2.0 mi North 3.5 mph - N/A   Overcast
6:29 AM 53.6 °F 51.8 °F 94% 30.16 in 3.0 mi NNE 3.5 mph - N/A   Overcast
6:56 AM 53.1 °F 52.0 °F 96% 30.16 in 4.0 mi NNE 3.5 mph - N/A   Overcast
7:56 AM 53.1 °F 52.0 °F 96% 30.19 in 3.0 mi North 5.8 mph - N/A   Overcast
8:05 AM 53.6 °F 51.8 °F 94% 30.19 in 1.5 mi North 5.8 mph - N/A   Overcast
8:15 AM 53.6 °F 51.8 °F 94% 30.20 in 2.0 mi North 6.9 mph - N/A   Overcast
8:23 AM 53.6 °F 51.8 °F 94% 30.19 in 1.2 mi NE 3.5 mph - N/A   Overcast
8:39 AM 53.6 °F 51.8 °F 94% 30.19 in 2.0 mi NE 3.5 mph - N/A   Overcast
8:56 AM 54.0 °F 52.0 °F 93% 30.19 in 2.0 mi Calm Calm - N/A   Overcast
9:00 AM 53.6 °F 51.8 °F 94% 30.19 in 1.5 mi Calm Calm - N/A   Overcast
9:56 AM 53.1 °F 52.0 °F 96% 30.19 in 1.5 mi North 3.5 mph - 0.03 in Rain Light Rain
10:13 AM 53.6 °F 51.8 °F 94% 30.20 in 2.0 mi NNW 3.5 mph - 0.00 in Rain Light Rain
10:56 AM 54.0 °F 52.0 °F 93% 30.19 in 2.5 mi Calm Calm - 0.01 in   Overcast
11:33 AM 55.4 °F 53.6 °F 94% 30.20 in 3.0 mi Calm Calm - N/A   Overcast
11:56 AM 55.0 °F 53.1 °F 93% 30.18 in 3.0 mi NNE 3.5 mph - N/A   Overcast
12:48 PM 55.4 °F 53.6 °F 94% 30.15 in 2.5 mi SE 4.6 mph - 0.00 in Rain Light Rain
12:56 PM 57.0 °F 55.0 °F 93% 30.14 in 4.0 mi ESE 3.5 mph - 0.00 in   Overcast
1:00 PM 57.2 °F 55.4 °F 94% 30.14 in 4.0 mi ESE 3.5 mph - N/A   Overcast
1:14 PM 57.2 °F 55.4 °F 94% 30.14 in 4.0 mi Calm Calm - N/A   Overcast
1:56 PM 59.0 °F 55.9 °F 90% 30.13 in 5.0 mi Calm Calm - N/A   Overcast
2:56 PM 60.1 °F 55.9 °F 86% 30.11 in 5.0 mi Calm Calm - N/A   Overcast
3:33 PM 60.8 °F 57.2 °F 88% 30.11 in 5.0 mi Calm Calm - N/A   Overcast
3:56 PM 59.0 °F 57.0 °F 93% 30.11 in 4.0 mi NNW 3.5 mph - N/A   Overcast
4:56 PM 57.9 °F 55.9 °F 93% 30.12 in 4.0 mi Calm Calm - 0.00 in   Overcast
5:56 PM 57.9 °F 55.9 °F 93% 30.11 in 5.0 mi North 3.5 mph - N/A   Overcast
6:17 PM 57.2 °F 55.4 °F 94% 30.11 in 4.0 mi North 4.6 mph - N/A   Overcast
6:56 PM 57.0 °F 55.0 °F 93% 30.11 in 5.0 mi Calm Calm - N/A   Overcast
7:56 PM 55.9 °F 55.0 °F 97% 30.11 in 4.0 mi NNW 4.6 mph - N/A   Overcast
8:07 PM 55.4 °F 55.4 °F 100% 30.11 in 4.0 mi NNW 5.8 mph - N/A   Overcast
8:10 PM 55.4 °F 55.4 °F 100% 30.11 in 4.0 mi NNW 4.6 mph - N/A   Overcast
8:40 PM 55.4 °F 55.4 °F 100% 30.10 in 4.0 mi North 3.5 mph - N/A   Overcast
8:56 PM 57.0 °F 55.0 °F 93% 30.10 in 5.0 mi Calm Calm - N/A   Overcast
9:56 PM 55.9 °F 54.0 °F 93% 30.09 in 4.0 mi NNW 4.6 mph - 0.00 in   Light Drizzle
10:16 PM 55.4 °F 53.6 °F 94% 30.08 in 4.0 mi Calm Calm - 0.00 in   Overcast
10:56 PM 55.0 °F 54.0 °F 96% 30.08 in 3.0 mi NNW 3.5 mph - 0.00 in Rain Light Rain
11:01 PM 55.4 °F 53.6 °F 94% 30.08 in 2.5 mi NNW 3.5 mph - 0.01 in Rain Rain
11:14 PM 55.4 °F 53.6 °F 94% 30.07 in 1.8 mi North 3.5 mph - 0.07 in Rain Heavy Rain
11:31 PM 55.4 °F 53.6 °F 94% 30.07 in 2.0 mi North 4.6 mph - 0.10 in Rain Light Rain
11:42 PM 55.4 °F 53.6 °F 94% 30.07 in 2.5 mi Calm Calm - 0.11 in Rain Light Rain
11:54 PM 55.4 °F 53.6 °F 94% 30.06 in 3.0 mi Calm Calm - 0.13 in Rain Light Rain
11:56 PM 55.0 °F 54.0 °F 96% 30.06 in 3.0 mi Calm Calm - 0.13 in Rain Light Rain